Lid_Strength_Index
-1 -1 -0 -2 -0 -1 -0 -1 -1 -1 -1 -1 -1 -1 -1 -1 -0 -0 -1 -2 -2 -2 -1 -1 -1 -1 -1 -1 -1 -1 -1 -1 -1 -1 -1 -1 -1 -1 -1 -1 -1 -1 0
-1 -0 -1 -0 -2 -2 -1 -1 -2 -1 -0 -1 -1 -1 -1 -1 -2 -0 -1 -1 -2 -2 -2 -1 -1 -1 -1 -1 -1 -1 -1 -1 -1 -1 -1 -1 -1 -1 -1 -1 -1 -1 -1
-1 -1 -1 -1 -1 -2 -2 -0 -1 -1 -1 -0 -1 -1 -1 -1 -1 -1 -1 -1 -1 -2 -2 -2 -2 -1 -1 -1 -1 -1 -1 -2 -1 -1 -2 -2 -2 -2 -2 -2 -1 -1 -1
-3 -2 -0 -0 -2 -2 -1 -0 -0 -0 0 -0 0 0 -0 -1 -1 -2 -1 -1 -1 -1 -2 -2 -2 -2 -1 -1 -1 -1 -1 -2 -2 -2 -2 -2 -2 -2 -2 -2 -1 -1 -1
-3 -2 -1 -1 -2 -1 -1 -0 -0 -0 1 0 1 -0 -0 -0 -0 -1 -1 -1 -2 -1 -1 -2 -2 -3 -2 -1 -1 -2 -2 -2 -2 -2 -2 -2 -2 -2 -2 -2 -2 -1 -1
-2 -1 -2 -2 -1 -1 -0 0 -0 -0 -0 1 1 1 0 -0 -1 -0 -0 -1 -2 -1 -1 -1 -1 -1 -3 -2 -3 -3 -2 -2 -2 -2 -2 -2 -2 -2 -2 -2 -2 -2 -2
-2 -3 -2 -1 -0 -0 1 -1 -0 1 1 0 1 1 1 -0 -0 -0 -1 -0 -1 -1 -1 -2 -1 -1 -1 -3 -2 -3 -3 -3 -3 -2 -2 -2 -2 -1 -1 -1 -1 -1 -1
-3 -2 -0 -0 -0 -0 -0 -0 1 1 1 0 2 2 4 3 1 0 -0 -0 -0 -1 -1 -1 -2 -1 -1 -1 -1 -3 -3 -3 -3 -2 -2 -2 -2 -2 -1 -1 -1 -1 -1
-2 -1 -2 -1 -1 -1 0 -0 -0 0 2 1 0 2 5 5 3 1 1 0 -0 0 -1 -1 -1 -2 -2 -2 -2 -2 -3 -2 -2 -2 -2 -2 -2 -1 -1 -1 -1 -0 -0
-1 -2 -2 -1 -1 -1 -0 0 -0 0 0 2 1 0 1 2 4 5 1 1 0 0 -0 -0 -1 -1 -2 -2 -2 -2 -3 -2 -1 -2 -1 -1 -2 -2 -1 -1 -1 -0 -0
-2 -2 -2 -2 -1 -1 -1 0 -1 -0 -0 1 1 1 1 1 2 3 5 3 1 0 -0 -0 -0 -1 -1 -1 -2 -1 -1 -0 -0 -1 -1 -2 -1 -1 -1 -1 -1 -1 -1
-0 -1 -2 -2 -2 -0 -0 -0 -1 -1 0 0 1 1 2 2 3 3 4 3 3 1 0 -0 -0 -1 -1 -1 -2 -2 -1 0 0 -0 0 -1 -1 -1 -1 -1 -1 -1 -1
1 -0 -1 -1 -1 -1 -1 -1 -1 -0 -0 0 1 1 1 1 1 1 2 3 3 2 1 0 -0 -1 -1 -2 -2 -1 -2 -1 1 1 1 0 -1 -0 0 0 0 -0 -1
0 -1 -1 -1 -1 -1 -1 -1 -0 -0 -0 -0 0 0 1 1 1 1 2 3 4 3 2 2 0 -0 -1 -1 -1 -1 -1 -0 1 1 1 1 0 1 1 1 2 1 1
-0 -1 -0 -0 -1 -1 -1 -1 -0 0 -0 -0 0 0 1 0 0 0 0 1 3 5 4 2 2 -1 -1 -1 -1 -1 -1 1 1 1 1 1 1 1 1 2 3 2 2
-0 0 -0 0 -0 -0 -1 -0 0 -0 0 0 0 0 0 0 0 0 0 1 1 2 4 2 1 0 -1 -0 -2 -1 -1 1 1 0 1 1 1 1 2 3 3 4 4
-0 0 0 1 -0 -0 -0 -0 -0 -0 0 0 -0 0 1 0 1 1 1 1 1 1 3 2 1 0 0 0 -0 -1 -1 -1 -1 0 0 1 1 1 2 3 4 5 5
-0 -1 -0 -0 -0 0 -0 0 0 0 1 1 1 0 1 0 1 0 1 1 1 1 2 3 2 1 1 0 0 0 -0 -0 -1 0 1 1 1 2 3 4 6 6 7
-0 -0 -0 0 0 0 0 0 0 0 0 1 0 0 1 1 1 1 1 1 1 1 1 2 2 1 1 0 1 0 0 -0 -1 -0 1 1 1 3 4 5 7 8 8
0 0 0 0 0 0 0 0 0 0 0 0 0 0 0 0 1 1 1 1 1 1 1 2 2 2 1 1 1 2 2 1 1 -0 -1 -0 0 2 4 6 7 8 9
0 0 0 0 -0 0 0 0 0 0 1 1 0 0 0 0 1 1 1 1 1 1 2 2 2 2 2 2 2 1 2 1 1 0 1 0 0 1 3 5 5 7 8
0 0 0 0 1 0 2 3 1 0 0 1 1 0 0 1 1 3 3 2 1 1 2 2 2 3 2 2 1 2 2 3 4 -0 1 1 0 0 0 2 4 6 8
0 0 1 0 1 0 3 4 3 0 1 1 1 1 1 0 1 0 3 4 3 3 2 1 2 2 2 1 1 2 2 2 2 1 1 2 0 1 -0 0 4 7 8
1 1 1 1 1 0 5 5 4 1 0 0 0 0 1 1 0 0 0 1 1 0 0 1 0 1 0 0 0 1 1 1 1 1 0 3 1 1 0 1 5 7 9
2 1 1 1 1 1 5 7 6 1 1 1 0 0 0 1 2 5 1 1 1 1 3 4 3 3 4 3 2 0 2 2 3 2 1 2 1 2 1 1 5 6 9
1 1 1 0 2 1 4 6 6 1 1 1 1 0 3 1 5 6 1 1 2 1 1 1 0 3 4 3 5 2 1 3 3 3 1 2 2 2 3 1 2 5 8